Year,Month,Day,Hour,Minute,Value (Times are PST for temperature in C)
2015,10,15,00,00,8.70
2015,10,15,00,01,8.70
2015,10,15,00,02,8.70
2015,10,15,00,03,8.70
2015,10,15,00,04,8.70
2015,10,15,00,05,8.70
2015,10,15,00,06,8.70
2015,10,15,00,07,8.70
2015,10,15,00,08,8.70
2015,10,15,00,09,8.60
2015,10,15,00,10,8.60
2015,10,15,00,11,8.60
2015,10,15,00,12,8.60
2015,10,15,00,13,8.60
2015,10,15,00,14,8.60
2015,10,15,00,15,8.70
2015,10,15,00,16,8.70
2015,10,15,00,17,8.70
2015,10,15,00,18,8.60
2015,10,15,00,19,8.60
2015,10,15,00,20,8.60
2015,10,15,00,21,8.60
2015,10,15,00,22,8.60
2015,10,15,00,23,8.50
2015,10,15,00,24,8.50
2015,10,15,00,25,8.50
2015,10,15,00,26,8.40
2015,10,15,00,27,8.40
2015,10,15,00,28,8.40
2015,10,15,00,29,8.40
2015,10,15,00,30,8.40
2015,10,15,00,31,8.40
2015,10,15,00,32,8.40
2015,10,15,00,33,8.40
2015,10,15,00,34,8.40
2015,10,15,00,35,8.40
2015,10,15,00,36,8.40
2015,10,15,00,37,8.40
2015,10,15,00,38,8.50
2015,10,15,00,39,8.50
2015,10,15,00,40,8.50
2015,10,15,00,41,8.50
2015,10,15,00,42,8.50
2015,10,15,00,43,8.50
2015,10,15,00,44,8.50
2015,10,15,00,45,8.40
2015,10,15,00,46,8.40
2015,10,15,00,47,8.40
2015,10,15,00,48,8.30
2015,10,15,00,49,8.30
2015,10,15,00,50,8.30
2015,10,15,00,51,8.30
2015,10,15,00,52,8.30
2015,10,15,00,53,8.30
2015,10,15,00,54,8.30
2015,10,15,00,55,8.30
2015,10,15,00,56,8.30
2015,10,15,00,57,8.30
2015,10,15,00,58,8.30
2015,10,15,00,59,8.30
2015,10,15,01,00,8.30
2015,10,15,01,01,8.30
2015,10,15,01,02,8.30
2015,10,15,01,03,8.20
2015,10,15,01,04,8.20
2015,10,15,01,05,8.20
2015,10,15,01,06,8.20
2015,10,15,01,07,8.10
2015,10,15,01,08,8.10
2015,10,15,01,09,8.10
2015,10,15,01,10,8.10
2015,10,15,01,11,8.10
2015,10,15,01,12,8.10
2015,10,15,01,13,8.10
2015,10,15,01,14,8.10
2015,10,15,01,15,8.10
2015,10,15,01,16,8.10
2015,10,15,01,17,8.10
2015,10,15,01,18,8.10
2015,10,15,01,19,8.10
2015,10,15,01,20,8.10
2015,10,15,01,21,8.10
2015,10,15,01,22,8.20
2015,10,15,01,23,8.20
2015,10,15,01,24,8.20
2015,10,15,01,25,8.20
2015,10,15,01,26,8.20
2015,10,15,01,27,8.10
2015,10,15,01,28,8.10
2015,10,15,01,29,8.10
2015,10,15,01,30,8.10
2015,10,15,01,31,8.10
2015,10,15,01,32,8.10
2015,10,15,01,33,8.10
2015,10,15,01,34,8.10
2015,10,15,01,35,8.10
2015,10,15,01,36,8.10
2015,10,15,01,37,8.10
2015,10,15,01,38,8.00
2015,10,15,01,39,8.00
2015,10,15,01,40,8.00
2015,10,15,01,41,8.00
2015,10,15,01,42,8.00
2015,10,15,01,43,8.00
2015,10,15,01,44,8.00
2015,10,15,01,45,8.00
2015,10,15,01,46,8.00
2015,10,15,01,47,8.00
2015,10,15,01,48,8.10
2015,10,15,01,49,8.10
2015,10,15,01,50,8.20
2015,10,15,01,51,8.20
2015,10,15,01,52,8.20
2015,10,15,01,53,8.30
2015,10,15,01,54,8.30
2015,10,15,01,55,8.30
2015,10,15,01,56,8.30
2015,10,15,01,57,8.20
2015,10,15,01,58,8.20
2015,10,15,01,59,8.20
2015,10,15,02,00,8.20
2015,10,15,02,01,8.20
2015,10,15,02,02,8.20
2015,10,15,02,03,8.20
2015,10,15,02,04,8.10
2015,10,15,02,05,8.10
2015,10,15,02,06,8.10
2015,10,15,02,07,8.10
2015,10,15,02,08,8.10
2015,10,15,02,09,8.10
2015,10,15,02,10,8.10
2015,10,15,02,11,8.10
2015,10,15,02,12,8.00
2015,10,15,02,13,8.00
2015,10,15,02,14,8.00
2015,10,15,02,15,8.00
2015,10,15,02,16,8.00
2015,10,15,02,17,8.00
2015,10,15,02,18,7.90
2015,10,15,02,19,7.90
2015,10,15,02,20,7.90
2015,10,15,02,21,7.90
2015,10,15,02,22,7.90
2015,10,15,02,23,7.90
2015,10,15,02,24,7.90
2015,10,15,02,25,7.90
2015,10,15,02,26,7.80
2015,10,15,02,27,7.80
2015,10,15,02,28,7.80
2015,10,15,02,29,7.80
2015,10,15,02,30,7.80
2015,10,15,02,31,7.80
2015,10,15,02,32,7.70
2015,10,15,02,33,7.70
2015,10,15,02,34,7.70
2015,10,15,02,35,7.70
2015,10,15,02,36,7.70
2015,10,15,02,37,7.70
2015,10,15,02,38,7.70
2015,10,15,02,39,7.60
2015,10,15,02,40,7.60
2015,10,15,02,41,7.60
2015,10,15,02,42,7.60
2015,10,15,02,43,7.60
2015,10,15,02,44,7.60
2015,10,15,02,45,7.60
2015,10,15,02,46,7.60
2015,10,15,02,47,7.60
2015,10,15,02,48,7.60
2015,10,15,02,49,7.60
2015,10,15,02,50,7.60
2015,10,15,02,51,7.60
2015,10,15,02,52,7.60
2015,10,15,02,53,7.60
2015,10,15,02,54,7.60
2015,10,15,02,55,7.60
2015,10,15,02,56,7.60
2015,10,15,02,57,7.60
2015,10,15,02,58,7.60
2015,10,15,02,59,7.60
2015,10,15,03,00,7.60
2015,10,15,03,01,7.60
2015,10,15,03,02,7.50
2015,10,15,03,03,7.50
2015,10,15,03,04,7.50
2015,10,15,03,05,7.50
2015,10,15,03,06,7.50
2015,10,15,03,07,7.50
2015,10,15,03,08,7.50
2015,10,15,03,09,7.60
2015,10,15,03,10,7.60
2015,10,15,03,11,7.70
2015,10,15,03,12,7.80
2015,10,15,03,13,7.80
2015,10,15,03,14,7.90
2015,10,15,03,15,7.90
2015,10,15,03,16,8.00
2015,10,15,03,17,8.00
2015,10,15,03,18,8.00
2015,10,15,03,19,8.00
2015,10,15,03,20,8.00
2015,10,15,03,21,8.00
2015,10,15,03,22,8.00
2015,10,15,03,23,8.00
2015,10,15,03,24,7.90
2015,10,15,03,25,7.90
2015,10,15,03,26,7.90
2015,10,15,03,27,7.80
2015,10,15,03,28,7.80
2015,10,15,03,29,7.80
2015,10,15,03,30,7.70
2015,10,15,03,31,7.70
2015,10,15,03,32,7.70
2015,10,15,03,33,7.70
2015,10,15,03,34,7.70
2015,10,15,03,35,7.70
2015,10,15,03,36,7.80
2015,10,15,03,37,7.80
2015,10,15,03,38,7.80
2015,10,15,03,39,7.90
2015,10,15,03,40,7.90
2015,10,15,03,41,8.00
2015,10,15,03,42,8.00
2015,10,15,03,43,8.10
2015,10,15,03,44,8.10
2015,10,15,03,45,8.10
2015,10,15,03,46,8.10
2015,10,15,03,47,8.10
2015,10,15,03,48,8.00
2015,10,15,03,49,8.00
2015,10,15,03,50,7.90
2015,10,15,03,51,7.90
2015,10,15,03,52,7.90
2015,10,15,03,53,7.80
2015,10,15,03,54,7.80
2015,10,15,03,55,7.80
2015,10,15,03,56,7.80
2015,10,15,03,57,7.70
2015,10,15,03,58,7.70
2015,10,15,03,59,7.70
2015,10,15,04,00,7.70
2015,10,15,04,01,7.60
2015,10,15,04,02,7.60
2015,10,15,04,03,7.60
2015,10,15,04,04,7.60
2015,10,15,04,05,7.60
2015,10,15,04,06,7.60
2015,10,15,04,07,7.60
2015,10,15,04,08,7.50
2015,10,15,04,09,7.50
2015,10,15,04,10,7.50
2015,10,15,04,11,7.50
2015,10,15,04,12,7.50
2015,10,15,04,13,7.50
2015,10,15,04,14,7.60
2015,10,15,04,15,7.60
2015,10,15,04,16,7.60
2015,10,15,04,17,7.60
2015,10,15,04,18,7.70
2015,10,15,04,19,7.70
2015,10,15,04,20,7.70
2015,10,15,04,21,7.80
2015,10,15,04,22,7.80
2015,10,15,04,23,7.80
2015,10,15,04,24,7.80
2015,10,15,04,25,7.90
2015,10,15,04,26,7.90
2015,10,15,04,27,7.90
2015,10,15,04,28,7.90
2015,10,15,04,29,8.00
2015,10,15,04,30,8.00
2015,10,15,04,31,8.00
2015,10,15,04,32,8.10
2015,10,15,04,33,8.10
2015,10,15,04,34,8.20
2015,10,15,04,35,8.20
2015,10,15,04,36,8.20
2015,10,15,04,37,8.20
2015,10,15,04,38,8.20
2015,10,15,04,39,8.20
2015,10,15,04,40,8.20
2015,10,15,04,41,8.10
2015,10,15,04,42,8.10
2015,10,15,04,43,8.10
2015,10,15,04,44,8.00
2015,10,15,04,45,8.00
2015,10,15,04,46,8.00
2015,10,15,04,47,8.00
2015,10,15,04,48,8.00
2015,10,15,04,49,8.10
2015,10,15,04,50,8.10
2015,10,15,04,51,8.20
2015,10,15,04,52,8.20
2015,10,15,04,53,8.10
2015,10,15,04,54,8.10
2015,10,15,04,55,8.10
2015,10,15,04,56,8.10
2015,10,15,04,57,8.10
2015,10,15,04,58,8.10
2015,10,15,04,59,8.10
2015,10,15,05,00,8.10
2015,10,15,05,01,8.10
2015,10,15,05,02,8.10
2015,10,15,05,03,8.10
2015,10,15,05,04,8.10
2015,10,15,05,05,8.10
2015,10,15,05,06,8.00
2015,10,15,05,07,8.00
2015,10,15,05,08,8.00
2015,10,15,05,09,8.00
2015,10,15,05,10,8.00
2015,10,15,05,11,8.00
2015,10,15,05,12,8.00
2015,10,15,05,13,8.00
2015,10,15,05,14,8.00
2015,10,15,05,15,8.00
2015,10,15,05,16,7.90
2015,10,15,05,17,7.90
2015,10,15,05,18,7.90
2015,10,15,05,19,7.90
2015,10,15,05,20,7.90
2015,10,15,05,21,7.90
2015,10,15,05,22,7.90
2015,10,15,05,23,8.00
2015,10,15,05,24,8.00
2015,10,15,05,25,8.00
2015,10,15,05,26,8.10
2015,10,15,05,27,8.10
2015,10,15,05,28,8.20
2015,10,15,05,29,8.30
2015,10,15,05,30,8.30
2015,10,15,05,31,8.40
2015,10,15,05,32,8.50
2015,10,15,05,33,8.50
2015,10,15,05,34,8.50
2015,10,15,05,35,8.60
2015,10,15,05,36,8.70
2015,10,15,05,37,8.70
2015,10,15,05,38,8.70
2015,10,15,05,39,8.70
2015,10,15,05,40,8.70
2015,10,15,05,41,8.60
2015,10,15,05,42,8.50
2015,10,15,05,43,8.50
2015,10,15,05,44,8.40
2015,10,15,05,45,8.40
2015,10,15,05,46,8.40
2015,10,15,05,47,8.40
2015,10,15,05,48,8.40
2015,10,15,05,49,8.40
2015,10,15,05,50,8.50
2015,10,15,05,51,8.50
2015,10,15,05,52,8.50
2015,10,15,05,53,8.60
2015,10,15,05,54,8.60
2015,10,15,05,55,8.70
2015,10,15,05,56,8.80
2015,10,15,05,57,8.90
2015,10,15,05,58,8.90
2015,10,15,05,59,9.00
2015,10,15,06,00,9.00
2015,10,15,06,01,9.10
2015,10,15,06,02,9.10
2015,10,15,06,03,9.10
2015,10,15,06,04,9.10
2015,10,15,06,05,9.10
2015,10,15,06,06,9.10
2015,10,15,06,07,9.10
2015,10,15,06,08,9.10
2015,10,15,06,09,9.10
2015,10,15,06,10,9.10
2015,10,15,06,11,9.20
2015,10,15,06,12,9.20
2015,10,15,06,13,9.30
2015,10,15,06,14,9.30
2015,10,15,06,15,9.30
2015,10,15,06,16,9.40
2015,10,15,06,17,9.40
2015,10,15,06,18,9.50
2015,10,15,06,19,9.50
2015,10,15,06,20,9.50
2015,10,15,06,21,9.60
2015,10,15,06,22,9.60
2015,10,15,06,23,9.70
2015,10,15,06,24,9.70
2015,10,15,06,25,9.70
2015,10,15,06,26,9.70
2015,10,15,06,27,9.70
2015,10,15,06,28,9.70
2015,10,15,06,29,9.70
2015,10,15,06,30,9.70
2015,10,15,06,31,9.60
2015,10,15,06,32,9.60
2015,10,15,06,33,9.60
2015,10,15,06,34,9.60
2015,10,15,06,35,9.60
2015,10,15,06,36,9.60
2015,10,15,06,37,9.60
2015,10,15,06,38,9.50
2015,10,15,06,39,9.50
2015,10,15,06,40,9.50
2015,10,15,06,41,9.50
2015,10,15,06,42,9.50
2015,10,15,06,43,9.50
2015,10,15,06,44,9.60
2015,10,15,06,45,9.60
2015,10,15,06,46,9.60
2015,10,15,06,47,9.70
2015,10,15,06,48,9.80
2015,10,15,06,49,9.80
2015,10,15,06,50,9.90
2015,10,15,06,51,10.00
2015,10,15,06,52,10.10
2015,10,15,06,53,10.20
2015,10,15,06,54,10.30
2015,10,15,06,55,10.40
2015,10,15,06,56,10.40
2015,10,15,06,57,10.40
2015,10,15,06,58,10.40
2015,10,15,06,59,10.40
2015,10,15,07,00,10.30
2015,10,15,07,01,10.30
2015,10,15,07,02,10.30
2015,10,15,07,03,10.30
2015,10,15,07,04,10.30
2015,10,15,07,05,10.40
2015,10,15,07,06,10.50
2015,10,15,07,07,10.60
2015,10,15,07,08,10.70
2015,10,15,07,09,10.80
2015,10,15,07,10,10.80
2015,10,15,07,11,10.80
2015,10,15,07,12,10.80
2015,10,15,07,13,10.80
2015,10,15,07,14,10.70
2015,10,15,07,15,10.70
2015,10,15,07,16,10.70
2015,10,15,07,17,10.70
2015,10,15,07,18,10.60
2015,10,15,07,19,10.60
2015,10,15,07,20,10.60
2015,10,15,07,21,10.50
2015,10,15,07,22,10.40
2015,10,15,07,23,10.40
2015,10,15,07,24,10.30
2015,10,15,07,25,10.30
2015,10,15,07,26,10.30
2015,10,15,07,27,10.30
2015,10,15,07,28,10.30
2015,10,15,07,29,10.30
2015,10,15,07,30,10.20
2015,10,15,07,31,10.20
2015,10,15,07,32,10.20
2015,10,15,07,33,10.20
2015,10,15,07,34,10.20
2015,10,15,07,35,10.20
2015,10,15,07,36,10.20
2015,10,15,07,37,10.10
2015,10,15,07,38,10.00
2015,10,15,07,39,10.00
2015,10,15,07,40,9.90
2015,10,15,07,41,9.90
2015,10,15,07,42,9.90
2015,10,15,07,43,9.90
2015,10,15,07,44,10.00
2015,10,15,07,45,10.10
2015,10,15,07,46,10.20
2015,10,15,07,47,10.20
2015,10,15,07,48,10.20
2015,10,15,07,49,10.20
2015,10,15,07,50,10.10
2015,10,15,07,51,10.10
2015,10,15,07,52,10.10
2015,10,15,07,53,10.10
2015,10,15,07,54,10.10
2015,10,15,07,55,10.10
2015,10,15,07,56,10.10
2015,10,15,07,57,10.10
2015,10,15,07,58,10.10
2015,10,15,07,59,10.10
2015,10,15,08,00,10.10
2015,10,15,08,01,10.10
2015,10,15,08,02,10.10
2015,10,15,08,03,10.20
2015,10,15,08,04,10.20
2015,10,15,08,05,10.20
2015,10,15,08,06,10.10
2015,10,15,08,07,10.00
2015,10,15,08,08,9.80
2015,10,15,08,09,9.70
2015,10,15,08,10,9.60
2015,10,15,08,11,9.60
2015,10,15,08,12,9.50
2015,10,15,08,13,9.40
2015,10,15,08,14,9.40
2015,10,15,08,15,9.30
2015,10,15,08,16,9.20
2015,10,15,08,17,9.20
2015,10,15,08,18,9.20
2015,10,15,08,19,9.10
2015,10,15,08,20,9.10
2015,10,15,08,21,9.00
2015,10,15,08,22,9.00
2015,10,15,08,23,8.90
2015,10,15,08,24,8.90
2015,10,15,08,25,8.90
2015,10,15,08,26,8.90
2015,10,15,08,27,8.90
2015,10,15,08,28,8.90
2015,10,15,08,29,8.90
2015,10,15,08,30,8.90
2015,10,15,08,31,8.90
2015,10,15,08,32,8.90
2015,10,15,08,33,8.90
2015,10,15,08,34,9.00
2015,10,15,08,35,9.00
2015,10,15,08,36,9.00
2015,10,15,08,37,9.10
2015,10,15,08,38,9.20
2015,10,15,08,39,9.20
2015,10,15,08,40,9.20
2015,10,15,08,41,9.30
2015,10,15,08,42,9.30
2015,10,15,08,43,9.30
2015,10,15,08,44,9.30
2015,10,15,08,45,9.30
2015,10,15,08,46,9.30
2015,10,15,08,47,9.30
2015,10,15,08,48,9.30
2015,10,15,08,49,9.30
2015,10,15,08,50,9.30
2015,10,15,08,51,9.30
2015,10,15,08,52,9.20
2015,10,15,08,53,9.20
2015,10,15,08,54,9.10
2015,10,15,08,55,9.10
2015,10,15,08,56,9.10
2015,10,15,08,57,9.10
2015,10,15,08,58,9.10
2015,10,15,08,59,9.10
2015,10,15,09,00,9.20
2015,10,15,09,01,9.20
2015,10,15,09,02,9.20
2015,10,15,09,03,9.20
2015,10,15,09,04,9.20
2015,10,15,09,05,9.10
2015,10,15,09,06,9.10
2015,10,15,09,07,9.10
2015,10,15,09,08,9.10
2015,10,15,09,09,9.10
2015,10,15,09,10,9.10
2015,10,15,09,11,9.10
2015,10,15,09,12,9.10
2015,10,15,09,13,9.10
2015,10,15,09,14,9.10
2015,10,15,09,15,9.20
2015,10,15,09,16,9.20
2015,10,15,09,17,9.20
2015,10,15,09,18,9.30
2015,10,15,09,19,9.30
2015,10,15,09,20,9.40
2015,10,15,09,21,9.40
2015,10,15,09,22,9.40
2015,10,15,09,23,9.40
2015,10,15,09,24,9.50
2015,10,15,09,25,9.50
2015,10,15,09,26,9.50
2015,10,15,09,27,9.50
2015,10,15,09,28,9.50
2015,10,15,09,29,9.60
2015,10,15,09,30,9.60
2015,10,15,09,31,9.60
2015,10,15,09,32,9.60
2015,10,15,09,33,9.60
2015,10,15,09,34,9.70
2015,10,15,09,35,9.70
2015,10,15,09,36,9.70
2015,10,15,09,37,9.80
2015,10,15,09,38,9.80
2015,10,15,09,39,9.90
2015,10,15,09,40,9.90
2015,10,15,09,41,9.90
2015,10,15,09,42,10.00
2015,10,15,09,43,10.00
2015,10,15,09,44,10.00
2015,10,15,09,45,10.00
2015,10,15,09,46,10.10
2015,10,15,09,47,10.10
2015,10,15,09,48,10.10
2015,10,15,09,49,10.20
2015,10,15,09,50,10.30
2015,10,15,09,51,10.40
2015,10,15,09,52,10.50
2015,10,15,09,53,10.50
2015,10,15,09,54,10.60
2015,10,15,09,55,10.70
2015,10,15,09,56,10.80
2015,10,15,09,57,10.80
2015,10,15,09,58,10.90
2015,10,15,09,59,11.00
2015,10,15,10,00,11.00
2015,10,15,10,01,11.10
2015,10,15,10,02,11.10
2015,10,15,10,03,11.10
2015,10,15,10,04,11.10
2015,10,15,10,05,11.20
2015,10,15,10,06,11.20
2015,10,15,10,07,11.20
2015,10,15,10,08,11.20
2015,10,15,10,09,11.20
2015,10,15,10,10,11.30
2015,10,15,10,11,11.30
2015,10,15,10,12,11.30
2015,10,15,10,13,11.40
2015,10,15,10,14,11.40
2015,10,15,10,15,11.40
2015,10,15,10,16,11.40
2015,10,15,10,17,11.40
2015,10,15,10,18,11.40
2015,10,15,10,19,11.50
2015,10,15,10,20,11.50
2015,10,15,10,21,11.50
2015,10,15,10,22,11.50
2015,10,15,10,23,11.50
2015,10,15,10,24,11.50
2015,10,15,10,25,11.50
2015,10,15,10,26,11.50
2015,10,15,10,27,11.50
2015,10,15,10,28,11.50
2015,10,15,10,29,11.50
2015,10,15,10,30,11.60
2015,10,15,10,31,11.60
2015,10,15,10,32,11.60
2015,10,15,10,33,11.60
2015,10,15,10,34,11.70
2015,10,15,10,35,11.70
2015,10,15,10,36,11.70
2015,10,15,10,37,11.70
2015,10,15,10,38,11.80
2015,10,15,10,39,11.80
2015,10,15,10,40,11.80
2015,10,15,10,41,11.80
2015,10,15,10,42,11.90
2015,10,15,10,43,11.90
2015,10,15,10,44,12.00
2015,10,15,10,45,12.00
2015,10,15,10,46,12.10
2015,10,15,10,47,12.20
2015,10,15,10,48,12.20
2015,10,15,10,49,12.30
2015,10,15,10,50,12.30
2015,10,15,10,51,12.40
2015,10,15,10,52,12.50
2015,10,15,10,53,12.50
2015,10,15,10,54,12.60
2015,10,15,10,55,12.70
2015,10,15,10,56,12.70
2015,10,15,10,57,12.70
2015,10,15,10,58,12.80
2015,10,15,10,59,12.80
2015,10,15,11,00,12.90
2015,10,15,11,01,12.90
2015,10,15,11,02,13.00
2015,10,15,11,03,13.00
2015,10,15,11,04,13.10
2015,10,15,11,05,13.10
2015,10,15,11,06,13.20
2015,10,15,11,07,13.20
2015,10,15,11,08,13.30
2015,10,15,11,09,13.40
2015,10,15,11,10,13.40
2015,10,15,11,11,13.50
2015,10,15,11,12,13.50
2015,10,15,11,13,13.60
2015,10,15,11,14,13.70
2015,10,15,11,15,13.70
2015,10,15,11,16,13.80
2015,10,15,11,17,13.80
2015,10,15,11,18,13.90
2015,10,15,11,19,13.90
2015,10,15,11,20,14.00
2015,10,15,11,21,14.00
2015,10,15,11,22,14.10
2015,10,15,11,23,14.20
2015,10,15,11,24,14.30
2015,10,15,11,25,14.40
2015,10,15,11,26,14.40
2015,10,15,11,27,14.50
2015,10,15,11,28,14.60
2015,10,15,11,29,14.70
2015,10,15,11,30,14.80
2015,10,15,11,31,14.90
2015,10,15,11,32,15.10
2015,10,15,11,33,15.10
2015,10,15,11,34,15.20
2015,10,15,11,35,15.20
2015,10,15,11,36,15.30
2015,10,15,11,37,15.30
2015,10,15,11,38,15.40
2015,10,15,11,39,15.40
2015,10,15,11,40,15.50
2015,10,15,11,41,15.60
2015,10,15,11,42,15.70
2015,10,15,11,43,15.70
2015,10,15,11,44,15.80
2015,10,15,11,45,15.90
2015,10,15,11,46,15.90
2015,10,15,11,47,15.90
2015,10,15,11,48,16.00
2015,10,15,11,49,16.00
2015,10,15,11,50,16.00
2015,10,15,11,51,16.00
2015,10,15,11,52,15.90
2015,10,15,11,53,15.90
2015,10,15,11,54,16.00
2015,10,15,11,55,16.00
2015,10,15,11,56,16.00
2015,10,15,11,57,16.10
2015,10,15,11,58,16.10
2015,10,15,11,59,16.10
2015,10,15,12,00,16.10
2015,10,15,12,01,16.10
2015,10,15,12,02,16.10
2015,10,15,12,03,16.20
2015,10,15,12,04,16.20
2015,10,15,12,05,16.20
2015,10,15,12,06,16.20
2015,10,15,12,07,16.30
2015,10,15,12,08,16.30
2015,10,15,12,09,16.30
2015,10,15,12,10,16.30
2015,10,15,12,11,16.30
2015,10,15,12,12,16.30
2015,10,15,12,13,16.30
2015,10,15,12,14,16.30
2015,10,15,12,15,16.30
2015,10,15,12,16,16.30
2015,10,15,12,17,16.30
2015,10,15,12,18,16.30
2015,10,15,12,19,16.40
2015,10,15,12,20,16.40
2015,10,15,12,21,16.40
2015,10,15,12,22,16.50
2015,10,15,12,23,16.50
2015,10,15,12,24,16.60
2015,10,15,12,25,16.60
2015,10,15,12,26,16.70
2015,10,15,12,27,16.70
2015,10,15,12,28,16.70
2015,10,15,12,29,16.70
2015,10,15,12,30,16.80
2015,10,15,12,31,16.80
2015,10,15,12,32,16.80
2015,10,15,12,33,16.80
2015,10,15,12,34,16.80
2015,10,15,12,35,16.80
2015,10,15,12,36,16.80
2015,10,15,12,37,16.80
2015,10,15,12,38,16.80
2015,10,15,12,39,16.80
2015,10,15,12,40,16.80
2015,10,15,12,41,16.80
2015,10,15,12,42,16.80
2015,10,15,12,43,16.80
2015,10,15,12,44,16.80
2015,10,15,12,45,16.80
2015,10,15,12,46,16.80
2015,10,15,12,47,16.80
2015,10,15,12,48,16.80
2015,10,15,12,49,16.80
2015,10,15,12,50,16.90
2015,10,15,12,51,17.00
2015,10,15,12,52,17.00
2015,10,15,12,53,17.10
2015,10,15,12,54,17.20
2015,10,15,12,55,17.20
2015,10,15,12,56,17.30
2015,10,15,12,57,17.40
2015,10,15,12,58,17.40
2015,10,15,12,59,17.50
2015,10,15,13,00,17.60
2015,10,15,13,01,17.60
2015,10,15,13,02,17.70
2015,10,15,13,03,17.70
2015,10,15,13,04,17.70
2015,10,15,13,05,17.70
2015,10,15,13,06,17.80
2015,10,15,13,07,17.80
2015,10,15,13,08,17.80
2015,10,15,13,09,17.80
2015,10,15,13,10,17.90
2015,10,15,13,11,17.90
2015,10,15,13,12,18.00
2015,10,15,13,13,18.00
2015,10,15,13,14,18.00
2015,10,15,13,15,18.10
2015,10,15,13,16,18.10
2015,10,15,13,17,18.10
2015,10,15,13,18,18.20
2015,10,15,13,19,18.20
2015,10,15,13,20,18.20
2015,10,15,13,21,18.20
2015,10,15,13,22,18.20
2015,10,15,13,23,18.20
2015,10,15,13,24,18.20
2015,10,15,13,25,18.20
2015,10,15,13,26,18.20
2015,10,15,13,27,18.20
2015,10,15,13,28,18.20
2015,10,15,13,29,18.20
2015,10,15,13,30,18.20
2015,10,15,13,31,18.30
2015,10,15,13,32,18.30
2015,10,15,13,33,18.40
2015,10,15,13,34,18.50
2015,10,15,13,35,18.60
2015,10,15,13,36,18.60
2015,10,15,13,37,18.70
2015,10,15,13,38,18.80
2015,10,15,13,39,18.90
2015,10,15,13,40,18.90
2015,10,15,13,41,19.00
2015,10,15,13,42,19.00
2015,10,15,13,43,19.00
2015,10,15,13,44,19.00
2015,10,15,13,45,19.00
2015,10,15,13,46,19.00
2015,10,15,13,47,19.10
2015,10,15,13,48,19.10
2015,10,15,13,49,19.10
2015,10,15,13,50,19.10
2015,10,15,13,51,19.10
2015,10,15,13,52,19.20
2015,10,15,13,53,19.20
2015,10,15,13,54,19.30
2015,10,15,13,55,19.40
2015,10,15,13,56,19.40
2015,10,15,13,57,19.50
2015,10,15,13,58,19.50
2015,10,15,13,59,19.40
2015,10,15,14,00,19.40
2015,10,15,14,01,19.40
2015,10,15,14,02,19.30
2015,10,15,14,03,19.30
2015,10,15,14,04,19.40
2015,10,15,14,05,19.40
2015,10,15,14,06,19.40
2015,10,15,14,07,19.30
2015,10,15,14,08,19.30
2015,10,15,14,09,19.20
2015,10,15,14,10,19.20
2015,10,15,14,11,19.20
2015,10,15,14,12,19.10
2015,10,15,14,13,19.10
2015,10,15,14,14,19.10
2015,10,15,14,15,19.10
2015,10,15,14,16,19.10
2015,10,15,14,17,19.10
2015,10,15,14,18,19.20
2015,10,15,14,19,19.10
2015,10,15,14,20,19.10
2015,10,15,14,21,19.10
2015,10,15,14,22,19.10
2015,10,15,14,23,19.10
2015,10,15,14,24,19.10
2015,10,15,14,25,19.10
2015,10,15,14,26,19.10
2015,10,15,14,27,19.20
2015,10,15,14,28,19.20
2015,10,15,14,29,19.30
2015,10,15,14,30,19.40
2015,10,15,14,31,19.50
2015,10,15,14,32,19.60
2015,10,15,14,33,19.70
2015,10,15,14,34,19.70
2015,10,15,14,35,19.70
2015,10,15,14,36,19.80
2015,10,15,14,37,19.80
2015,10,15,14,38,19.90
2015,10,15,14,39,20.00
2015,10,15,14,40,20.10
2015,10,15,14,41,20.20
2015,10,15,14,42,20.30
2015,10,15,14,43,20.30
2015,10,15,14,44,20.40
2015,10,15,14,45,20.50
2015,10,15,14,46,20.60
2015,10,15,14,47,20.70
2015,10,15,14,48,20.80
2015,10,15,14,49,20.90
2015,10,15,14,50,21.00
2015,10,15,14,51,21.10
2015,10,15,14,52,21.20
2015,10,15,14,53,21.20
2015,10,15,14,54,21.30
2015,10,15,14,55,21.40
2015,10,15,14,56,21.40
2015,10,15,14,57,21.50
2015,10,15,14,58,21.50
2015,10,15,14,59,21.60
2015,10,15,15,00,21.60
2015,10,15,15,01,21.60
2015,10,15,15,02,21.60
2015,10,15,15,03,21.70
2015,10,15,15,04,21.70
2015,10,15,15,05,21.70
2015,10,15,15,06,21.80
2015,10,15,15,07,21.80
2015,10,15,15,08,21.80
2015,10,15,15,09,21.90
2015,10,15,15,10,21.90
2015,10,15,15,11,22.00
2015,10,15,15,12,22.00
2015,10,15,15,13,22.10
2015,10,15,15,14,22.20
2015,10,15,15,15,22.20
2015,10,15,15,16,22.20
2015,10,15,15,17,22.20
2015,10,15,15,18,22.20
2015,10,15,15,19,22.20
2015,10,15,15,20,22.20
2015,10,15,15,21,22.20
2015,10,15,15,22,22.20
2015,10,15,15,23,22.20
2015,10,15,15,24,22.30
2015,10,15,15,25,22.30
2015,10,15,15,26,22.30
2015,10,15,15,27,22.30
2015,10,15,15,28,22.30
2015,10,15,15,29,22.30
2015,10,15,15,30,22.30
2015,10,15,15,31,22.30
2015,10,15,15,32,22.30
2015,10,15,15,33,22.30
2015,10,15,15,34,22.30
2015,10,15,15,35,22.30
2015,10,15,15,36,22.30
2015,10,15,15,37,22.30
2015,10,15,15,38,22.40
2015,10,15,15,39,22.40
2015,10,15,15,40,22.40
2015,10,15,15,41,22.30
2015,10,15,15,42,22.30
2015,10,15,15,43,22.30
2015,10,15,15,44,22.30
2015,10,15,15,45,22.30
2015,10,15,15,46,22.30
2015,10,15,15,47,22.30
2015,10,15,15,48,22.30
2015,10,15,15,49,22.30
2015,10,15,15,50,22.30
2015,10,15,15,51,22.30
2015,10,15,15,52,22.40
2015,10,15,15,53,22.50
2015,10,15,15,54,22.50
2015,10,15,15,55,22.60
2015,10,15,15,56,22.70
2015,10,15,15,57,22.70
2015,10,15,15,58,22.60
2015,10,15,15,59,22.60
2015,10,15,16,00,22.60
2015,10,15,16,01,22.50
2015,10,15,16,02,22.50
2015,10,15,16,03,22.40
2015,10,15,16,04,22.40
2015,10,15,16,05,22.30
2015,10,15,16,06,22.20
2015,10,15,16,07,22.00
2015,10,15,16,08,21.80
2015,10,15,16,09,21.60
2015,10,15,16,10,21.50
2015,10,15,16,11,21.40
2015,10,15,16,12,21.30
2015,10,15,16,13,21.30
2015,10,15,16,14,21.30
2015,10,15,16,15,21.30
2015,10,15,16,16,21.20
2015,10,15,16,17,21.20
2015,10,15,16,18,21.30
2015,10,15,16,19,21.30
2015,10,15,16,20,21.30
2015,10,15,16,21,21.30
2015,10,15,16,22,21.20
2015,10,15,16,23,21.20
2015,10,15,16,24,21.20
2015,10,15,16,25,21.20
2015,10,15,16,26,21.10
2015,10,15,16,27,21.10
2015,10,15,16,28,21.10
2015,10,15,16,29,21.10
2015,10,15,16,30,21.10
2015,10,15,16,31,21.10
2015,10,15,16,32,21.10
2015,10,15,16,33,21.00
2015,10,15,16,34,21.10
2015,10,15,16,35,21.10
2015,10,15,16,36,21.10
2015,10,15,16,37,21.10
2015,10,15,16,38,21.20
2015,10,15,16,39,21.20
2015,10,15,16,40,21.20
2015,10,15,16,41,21.20
2015,10,15,16,42,21.20
2015,10,15,16,43,21.10
2015,10,15,16,44,21.10
2015,10,15,16,45,21.10
2015,10,15,16,46,21.10
2015,10,15,16,47,21.10
2015,10,15,16,48,21.00
2015,10,15,16,49,21.00
2015,10,15,16,50,21.00
2015,10,15,16,51,20.90
2015,10,15,16,52,20.90
2015,10,15,16,53,20.80
2015,10,15,16,54,20.70
2015,10,15,16,55,20.70
2015,10,15,16,56,20.70
2015,10,15,16,57,20.70
2015,10,15,16,58,20.80
2015,10,15,16,59,20.80
2015,10,15,17,00,20.80
2015,10,15,17,01,20.80
2015,10,15,17,02,20.80
2015,10,15,17,03,20.90
2015,10,15,17,04,20.90
2015,10,15,17,05,20.90
2015,10,15,17,06,21.00
2015,10,15,17,07,21.00
2015,10,15,17,08,20.90
2015,10,15,17,09,20.90
2015,10,15,17,10,20.90
2015,10,15,17,11,20.80
2015,10,15,17,12,20.80
2015,10,15,17,13,20.80
2015,10,15,17,14,20.80
2015,10,15,17,15,20.80
2015,10,15,17,16,20.80
2015,10,15,17,17,20.70
2015,10,15,17,18,20.70
2015,10,15,17,19,20.60
2015,10,15,17,20,20.50
2015,10,15,17,21,20.40
2015,10,15,17,22,20.40
2015,10,15,17,23,20.30
2015,10,15,17,24,20.20
2015,10,15,17,25,20.10
2015,10,15,17,26,20.10
2015,10,15,17,27,20.10
2015,10,15,17,28,20.10
2015,10,15,17,29,20.10
2015,10,15,17,30,20.10
2015,10,15,17,31,20.00
2015,10,15,17,32,20.00
2015,10,15,17,33,20.00
2015,10,15,17,34,19.90
2015,10,15,17,35,19.90
2015,10,15,17,36,19.90
2015,10,15,17,37,19.90
2015,10,15,17,38,19.90
2015,10,15,17,39,19.80
2015,10,15,17,40,19.80
2015,10,15,17,41,19.80